Lapse_Rate
5.1 5.1 5.2 5.9 4.9 4.9 5.5 4.3 3.6 2.7 2.6 2.8 3.5 4.2 4.7 5.2 4.7 4.6 5.2 5.9 6.3 5.4 4.9 5.1 5.5 4.4 3.5 3.7 4.0 3.9 4.3 4.5
5.5 5.1 4.2 4.6 4.7 5.4 4.7 3.4 3.4 3.5 3.2 2.9 4.0 4.5 4.5 3.9 4.4 5.5 5.3 5.9 6.2 5.7 5.0 4.6 4.8 3.3 3.7 4.0 3.9 4.3 4.5 4.2
5.3 4.9 4.5 5.1 4.3 2.9 3.3 3.7 2.8 4.4 4.7 5.2 4.9 4.6 4.2 3.8 4.5 5.1 6.0 5.9 6.1 5.7 5.3 4.9 5.1 3.8 3.5 3.8 4.4 4.4 4.7 4.1
5.1 4.8 3.8 3.6 2.8 2.4 2.8 3.9 4.2 4.6 5.0 4.7 4.5 4.2 3.8 3.6 3.2 3.1 5.8 7.2 6.7 5.3 4.7 4.5 4.3 4.2 3.8 4.2 4.5 5.1 5.1 4.7
5.6 5.0 2.8 3.1 3.1 1.3 3.8 4.1 4.3 4.9 5.5 5.1 5.4 4.6 4.0 3.2 3.4 4.2 4.8 5.7 4.9 4.8 4.4 4.4 3.9 3.9 3.4 3.8 6.3 5.4 4.9 4.6
5.1 4.6 3.9 3.6 3.8 4.1 4.0 4.6 5.2 5.0 4.9 3.9 3.6 3.6 2.8 2.4 3.2 3.6 3.6 3.8 5.0 4.9 4.7 3.9 3.8 3.7 3.7 4.1 4.8 4.4 4.0 4.3
4.4 4.6 5.1 4.8 3.9 4.6 5.3 5.1 4.1 3.2 2.7 2.1 2.2 2.3 1.9 2.5 2.5 2.1 2.5 2.6 3.0 4.2 4.8 4.6 4.9 4.8 4.5 4.7 5.0 4.4 3.9 4.3
4.1 4.0 3.5 3.3 3.5 4.5 3.9 3.8 3.3 2.7 2.2 1.9 1.7 1.8 1.8 1.8 1.9 1.6 1.9 2.5 2.8 2.7 3.9 3.7 4.5 5.6 6.0 6.0 4.8 4.6 4.7 4.7
4.1 4.6 4.1 3.6 3.7 3.6 3.7 3.5 3.0 2.7 2.3 2.1 1.9 1.9 1.1 1.6 1.6 1.7 2.3 2.8 3.1 3.9 4.3 5.3 5.4 6.5 6.9 6.4 5.2 4.8 5.6 4.7
4.1 4.0 3.9 3.5 3.6 4.1 3.6 3.6 3.5 3.1 2.4 1.8 2.0 2.1 1.7 1.9 2.3 3.1 2.9 3.1 5.2 5.0 5.6 5.0 5.6 6.3 6.9 6.6 5.2 5.9 5.5 5.4
4.4 4.5 3.9 4.0 3.8 3.8 3.9 3.9 4.0 3.2 2.5 2.4 2.7 2.7 2.7 3.1 3.4 3.9 4.2 3.6 5.5 5.5 5.2 5.7 6.1 6.7 6.7 6.3 6.0 6.2 6.2 5.4
4.6 4.2 4.3 4.1 4.2 3.6 4.0 3.8 3.5 3.0 3.1 3.2 3.0 3.4 4.3 4.8 5.4 4.4 5.1 5.0 6.0 5.9 6.2 6.6 6.4 6.5 6.4 6.0 5.8 6.3 6.2 6.2
4.2 4.0 3.9 4.1 4.5 4.5 4.0 3.4 3.8 3.4 3.0 3.6 3.7 4.6 5.8 5.9 5.7 5.7 5.0 5.5 6.5 6.3 6.6 6.6 6.9 6.9 6.4 6.3 6.3 6.5 6.9 7.2
4.4 3.4 3.9 4.4 4.4 4.7 4.3 4.0 3.7 3.6 3.8 3.8 3.9 5.8 6.6 6.5 6.2 5.9 5.3 5.6 5.4 6.6 7.1 6.6 6.9 7.2 7.1 6.6 6.4 6.3 6.1 6.1
4.3 3.8 3.9 4.2 4.6 4.4 4.6 3.6 3.9 4.1 4.2 4.3 5.0 6.0 6.1 6.0 5.9 6.1 6.0 5.5 5.8 6.5 6.5 6.7 6.6 6.7 7.2 7.0 6.3 5.5 5.5 5.9
3.8 3.7 3.5 4.4 4.5 3.9 4.3 3.8 4.0 3.9 4.4 5.3 5.6 5.5 5.8 5.8 6.0 5.6 6.0 6.3 6.4 6.2 6.5 6.3 6.5 6.7 6.8 5.2 5.8 5.4 5.2 5.3
4.6 3.7 3.6 4.3 3.7 3.9 4.5 3.9 3.6 4.1 4.0 5.2 6.0 5.6 5.3 5.5 5.4 6.3 6.0 6.1 6.4 6.1 6.0 6.6 6.5 6.9 3.6 4.3 4.4 4.4 5.5 5.6
4.6 4.1 3.8 3.6 3.5 4.2 3.5 3.6 3.7 3.6 4.0 5.5 5.5 4.5 5.0 5.9 7.1 7.8 6.9 6.6 6.1 6.3 6.3 6.4 6.2 4.2 3.5 3.8 3.8 3.8 4.9 4.8
5.0 4.9 4.3 3.4 2.9 3.1 2.5 3.5 3.6 4.1 5.5 4.7 4.5 4.5 5.7 7.1 8.4 7.4 6.2 5.9 6.2 6.3 6.4 6.3 4.9 4.0 3.4 3.9 3.7 3.6 4.1 4.6
Wind_Speed
9 9 14 18 15 12 13 11 12 9 8 7 5 7 10 12 9 11 13 13 13 14 12 11 12 8 4 4 5 3 2 2
8 7 10 13 15 16 14 16 12 9 4 4 3 4 3 3 12 18 15 13 12 12 9 10 11 4 3 3 2 3 3 3
8 8 9 17 15 13 11 14 14 9 7 5 4 4 3 4 12 15 15 14 12 10 7 4 5 3 5 4 3 2 2 3
9 9 9 13 14 12 12 12 12 9 8 5 4 6 5 3 4 4 8 9 9 13 14 11 9 6 3 3 3 3 1 2
11 10 9 12 12 7 12 11 10 8 8 10 14 6 4 3 4 3 6 12 11 13 13 11 8 6 4 3 1 1 2 3
13 10 12 12 13 12 9 7 7 6 8 9 8 9 6 4 5 7 5 8 11 13 12 11 9 8 7 6 5 5 4 2
9 12 12 10 7 8 9 9 7 9 10 8 11 13 8 6 4 4 3 3 6 10 10 9 8 7 5 4 4 5 4 3
14 13 9 8 10 9 8 10 9 10 11 9 9 9 9 8 6 4 4 2 2 3 6 6 5 8 5 5 4 3 2 1
13 13 11 9 9 8 8 10 9 9 8 8 7 8 5 5 5 4 3 3 2 6 6 6 8 9 3 3 2 1 2 1
12 11 12 10 9 8 8 8 8 8 8 7 6 6 6 6 6 5 3 3 3 5 5 5 6 7 5 3 2 3 3 3
13 12 13 11 11 8 8 8 10 7 8 6 5 6 6 6 6 5 5 5 3 2 4 5 5 7 8 3 3 2 3 4
15 12 14 14 12 9 9 9 10 9 8 6 7 5 5 5 5 5 5 4 3 1 2 3 5 6 7 3 3 3 2 3
15 15 15 14 13 12 10 10 12 10 8 7 7 6 6 6 5 5 7 5 3 3 0 3 5 2 2 2 4 5 3 4
14 12 16 16 13 13 11 12 12 12 10 8 7 6 6 6 6 5 5 5 4 3 2 5 4 4 1 3 4 5 5 4
14 13 15 15 15 14 13 10 13 12 10 9 8 7 7 5 5 5 5 4 5 3 4 6 6 6 4 4 4 4 4 4
8 14 12 12 12 11 10 9 12 11 9 8 8 6 7 6 4 4 2 3 4 5 6 6 5 5 3 5 4 4 3 3
6 9 11 13 12 11 11 11 10 12 8 7 6 7 8 7 4 1 4 5 6 6 6 6 5 3 10 9 6 4 2 2
7 7 9 9 11 13 12 12 11 9 7 7 8 8 7 5 5 4 5 6 5 6 6 5 3 6 12 11 9 3 1 2
6 3 5 7 7 8 8 10 10 9 8 9 7 9 7 7 6 5 6 4 6 5 5 6 5 5 13 12 9 4 2 2
Wind_Direction
151 160 147 151 147 141 149 127 130 119 123 129 146 128 163 152 147 107 107 89 72 74 58 53 58 46 30 21 29 2 9 328
148 132 136 139 142 147 144 139 140 130 154 139 153 163 136 128 107 98 83 93 77 72 59 54 43 53 34 36 34 13 323 359
145 137 112 144 149 151 139 142 144 156 163 181 160 160 144 139 109 104 97 88 87 86 85 75 50 39 23 15 17 335 322 26
162 149 121 132 138 148 146 153 160 164 181 128 106 97 94 91 99 108 125 123 92 76 73 64 44 38 5 341 349 74 348 327
162 152 125 137 140 155 161 173 171 177 156 139 146 148 147 156 133 121 102 102 91 91 84 66 46 23 0 324 317 225 130 55
160 149 144 153 156 155 183 157 155 146 161 135 129 123 117 105 106 115 99 85 79 74 61 47 27 7 345 338 344 65 74 98
138 145 144 143 129 128 134 129 105 96 95 102 117 123 125 113 116 107 95 90 78 67 55 47 19 354 0 51 69 65 69 72
130 129 128 116 121 129 127 115 114 108 106 105 110 121 120 123 127 125 101 85 64 46 55 34 5 347 102 77 64 49 35 14
137 139 130 130 130 134 123 125 125 118 116 116 114 119 123 124 122 115 107 100 99 58 43 18 3 360 255 138 103 320 297 313
141 142 141 142 145 155 144 133 126 125 121 115 113 116 117 128 122 103 114 98 73 44 22 16 355 349 325 243 150 282 316 283
156 157 156 158 157 159 152 141 143 139 128 126 130 135 140 137 129 129 123 110 74 29 16 10 335 317 313 233 218 273 252 282
168 166 166 164 163 159 159 145 140 136 136 138 148 164 158 149 148 152 144 130 129 76 22 332 303 303 330 7 308 285 306 315
171 165 163 166 166 166 161 150 147 151 150 149 168 170 179 170 175 167 154 156 168 150 194 293 293 191 334 343 293 287 301 92
175 162 166 168 168 169 163 153 155 158 155 157 172 186 188 185 182 168 163 181 176 170 265 281 263 220 288 316 57 50 53 81
181 169 172 170 172 167 165 156 158 160 158 167 174 184 188 181 154 160 193 186 168 203 256 266 263 224 182 129 99 63 35 18
193 172 169 169 166 163 169 165 160 157 156 161 184 183 152 151 113 79 60 179 210 226 245 254 271 211 148 143 131 118 73 8
63 171 167 174 171 168 176 168 158 154 154 166 134 123 125 110 122 51 280 268 264 251 256 247 263 178 161 149 148 132 79 355
62 140 175 166 163 171 175 166 157 147 145 146 130 120 106 106 53 357 310 283 282 264 250 257 232 167 170 152 148 144 161 281
55 77 137 172 172 171 146 146 144 139 127 106 103 84 80 54 19 329 317 317 287 261 264 265 169 186 174 162 149 146 210 285